This is the latest recevied weather packets stored in our database for station/object KD8OUK. If no packets are shown the sender has not sent any weather packets the latest 10 day(s).
| Time | Temp. | Humidity | Pressure | Rain* | Wind** | Luminosity | Snow |
|---|---|---|---|---|---|---|---|
| 1778048724 | 6.11° C | 99% | 1009.1 hPa | 4.83 mm | - | - | - |
| 1778048415 | 6.11° C | 99% | 1009.1 hPa | 5.59 mm | - | - | - |
| 1778048126 | 6.11° C | 99% | 1009 hPa | 6.1 mm | - | - | - |
| 1778047818 | 6.11° C | 99% | 1008.7 hPa | 6.6 mm | - | - | - |
| 1778047529 | 6.11° C | 99% | 1008.7 hPa | 7.11 mm | - | - | - |
| 1778047220 | 6.11° C | 99% | 1008.9 hPa | 6.86 mm | - | - | - |
| 1778046930 | 6.11° C | 99% | 1008.9 hPa | 6.6 mm | - | - | - |
| 1778046622 | 6.11° C | 99% | 1008.9 hPa | 6.6 mm | - | - | - |
| 1778046333 | 6.11° C | 99% | 1008.8 hPa | 6.1 mm | - | - | - |
| 1778046021 | 6.11° C | 99% | 1008.8 hPa | 5.84 mm | - | - | - |
| 1778045729 | 6.11° C | 99% | 1009.5 hPa | 6.1 mm | - | - | - |
| 1778045422 | 6.11° C | 99% | 1009.5 hPa | 5.84 mm | - | - | - |
| 1778045132 | 6.67° C | 99% | 1009.5 hPa | 5.84 mm | - | - | - |
| 1778044824 | 6.67° C | 99% | 1009.5 hPa | 5.59 mm | - | - | - |
| 1778044516 | 6.67° C | 99% | 1009.4 hPa | 5.84 mm | - | - | - |
| 1778044226 | 6.67° C | 99% | 1009.1 hPa | 5.84 mm | - | - | - |
| 1778043918 | 6.67° C | 99% | 1009.1 hPa | 5.33 mm | - | - | - |
| 1778043628 | 6.67° C | 99% | 1008.9 hPa | 5.33 mm | - | - | - |
| 1778043320 | 6.67° C | 99% | 1008.8 hPa | 5.33 mm | - | - | - |
| 1778043031 | 6.67° C | 99% | 1008.9 hPa | 5.33 mm | - | - | - |
| 1778042723 | 6.67° C | 99% | 1009 hPa | 5.33 mm | - | - | - |
| 1778042433 | 6.67° C | 99% | 1009 hPa | 5.33 mm | - | - | - |
| 1778042126 | 6.67° C | 99% | 1009.1 hPa | 4.83 mm | - | - | - |
| 1778041819 | 6.67° C | 99% | 1009.1 hPa | 4.32 mm | - | - | - |
| 1778041528 | 6.67° C | 99% | 1009.3 hPa | 3.56 mm | - | - | - |
* Rain latest hour (hover to see other rain measurements)
** Current wind speed in m/s (hover to see current wind gust speed)